Theta_e
348 347 348 347 348 347 346 346 346 345 344 345 345 344 345 346 345 345 347 347 348 346 346 347 348 349 349 351 351 352 352 353 353 352 354 352 352 353 353 353 352 352 353 353 354 354 353 350 349 349 348 346 347 347 346 348 350 349 349 347 348 351 351 346 341 343 346 354 354 353 354 353 350 350 348 349 351 355 358 355 357 360 359 354 354
348 347 348 348 347 348 347 347 347 345 344 343 344 343 344 345 344 344 344 345 347 346 346 346 348 349 349 348 349 351 351 351 352 351 353 352 352 353 353 352 352 352 352 351 351 353 352 350 350 351 352 350 349 347 346 346 349 350 349 350 350 353 355 349 345 343 343 345 348 355 353 354 348 349 347 348 350 354 356 355 359 360 356 355 353
349 348 348 348 347 348 348 347 347 345 344 342 342 342 342 343 344 342 343 343 345 346 346 345 346 347 348 348 347 349 350 351 351 350 352 353 352 352 353 352 352 352 352 352 352 352 351 351 351 352 354 351 350 349 351 346 348 349 349 350 348 350 353 355 349 346 345 343 346 350 350 347 344 345 348 351 352 353 352 354 358 358 356 354 353
349 348 348 348 348 348 347 347 346 346 344 344 342 341 341 342 343 341 341 343 343 344 345 345 345 345 346 347 346 346 348 350 350 350 350 353 353 352 351 351 352 352 352 353 353 352 352 350 351 351 352 350 348 348 349 348 348 347 347 349 347 346 353 355 351 346 345 343 342 350 352 343 344 347 351 353 351 352 350 354 354 352 352 352 349
347 348 347 347 347 347 347 347 346 345 345 345 343 342 340 340 341 341 340 341 342 343 345 345 344 345 345 345 345 345 345 347 348 348 349 352 353 353 352 350 351 352 353 353 359 354 353 352 351 351 350 349 348 350 350 349 349 349 351 351 349 350 353 353 351 348 345 343 343 348 346 345 346 346 347 346 344 347 349 349 350 349 348 347 345
346 346 346 346 345 345 346 346 346 345 345 345 343 341 340 339 339 342 341 340 340 342 343 344 345 344 345 345 345 345 345 345 346 346 346 349 352 352 352 351 350 353 354 354 354 356 354 353 352 352 351 349 346 348 349 348 352 350 350 351 351 351 349 349 351 350 346 344 342 344 344 342 343 343 344 345 342 343 344 347 351 350 347 345 345
346 344 345 345 344 343 345 345 345 345 345 345 344 341 338 338 338 339 342 340 340 340 342 343 345 345 345 345 345 345 344 344 345 346 345 346 348 350 350 350 349 351 354 355 355 355 356 355 353 353 352 351 349 348 349 349 353 352 349 351 352 351 350 352 353 349 347 345 343 344 344 346 341 339 342 346 344 344 342 342 344 348 349 346 342
346 344 344 344 343 342 343 344 345 345 345 345 344 342 339 338 338 339 341 340 339 340 342 342 342 344 344 345 345 345 344 343 344 345 345 344 346 348 349 349 349 349 350 353 354 355 355 355 355 354 354 354 353 352 353 351 352 351 352 352 351 349 347 348 351 347 345 344 342 343 341 339 339 341 343 343 343 343 344 339 340 343 344 347 343
344 344 343 343 343 343 343 343 343 343 345 344 343 342 340 339 339 339 340 340 341 341 342 343 342 342 343 344 344 345 345 343 344 344 344 343 344 346 348 349 348 348 348 349 351 353 353 354 354 353 359 368 371 367 362 360 351 348 350 351 350 348 346 346 347 345 342 342 341 341 341 338 337 338 338 336 334 336 339 344 343 345 344 342 341
344 344 343 343 344 344 343 345 345 345 343 341 341 341 340 340 340 340 340 340 339 340 342 343 343 342 342 342 342 344 345 346 353 354 353 346 343 346 348 348 348 348 348 348 349 352 353 354 358 367 368 368 368 371 368 367 365 354 350 352 352 348 346 346 344 344 343 341 341 342 340 339 339 339 337 338 337 339 340 341 341 343 343 340 340
344 344 343 344 344 345 345 345 346 346 346 344 341 341 340 341 340 340 341 341 340 341 342 343 343 343 342 342 341 342 343 347 356 345 345 353 349 344 346 347 348 348 348 348 348 350 353 355 355 366 368 370 367 370 369 369 368 366 367 365 362 352 348 347 345 343 343 342 339 340 340 339 338 341 340 341 344 343 340 340 340 340 338 335 333
343 343 344 345 346 346 345 345 346 348 350 348 345 343 342 341 340 340 341 341 341 342 342 342 343 343 343 342 342 343 343 355 342 341 343 344 357 348 345 346 349 348 348 349 349 350 352 354 354 357 361 361 361 364 368 370 369 368 367 368 368 367 362 355 350 344 341 340 340 342 340 339 337 341 340 343 343 344 344 342 340 340 339 337 335
344 343 344 344 346 347 348 348 347 348 351 353 351 347 344 342 340 339 339 341 342 342 342 342 342 343 343 342 342 344 345 349 338 338 339 339 345 358 346 346 347 349 349 350 350 351 352 354 353 355 359 370 370 360 359 365 370 369 367 365 364 355 344 351 359 354 346 342 341 340 340 339 338 341 343 339 342 341 340 340 339 340 339 337 336
345 344 344 344 345 345 347 349 350 351 351 352 353 351 348 344 342 341 342 342 341 342 343 343 343 343 343 343 344 345 346 351 338 336 336 336 338 348 349 349 349 350 351 353 353 352 352 353 352 353 354 358 360 355 356 359 361 357 353 347 345 351 356 356 358 359 357 347 343 342 337 337 341 336 338 336 339 341 339 335 334 334 334 334 336
345 345 345 346 346 345 346 346 347 348 349 351 352 352 351 349 345 343 343 343 341 341 342 342 343 345 346 345 345 346 348 342 336 335 333 333 335 347 351 352 352 351 352 353 353 353 353 354 353 352 352 352 358 356 355 358 355 347 340 335 332 331 330 332 335 338 341 339 341 335 330 331 332 331 331 334 335 341 341 335 332 331 331 335 336
342 342 343 344 345 345 346 346 347 348 348 349 350 351 352 351 349 347 343 343 344 343 343 343 343 344 346 347 346 346 349 337 333 333 332 332 336 346 348 351 351 351 352 353 354 353 354 355 353 352 351 350 362 359 360 357 349 341 335 329 326 324 325 330 328 334 334 329 328 328 330 335 334 335 335 334 338 341 339 334 331 330 330 328 327
342 342 343 344 344 345 346 346 347 347 348 349 349 351 352 352 351 350 346 342 343 344 344 344 344 345 347 347 346 346 348 338 329 329 329 329 337 344 346 348 350 350 350 351 353 353 354 354 354 352 351 350 353 341 348 360 345 340 333 328 325 323 322 325 326 324 323 323 324 326 326 325 325 323 322 326 339 335 331 327 325 326 325 321 322
340 341 343 344 345 346 346 346 347 348 348 349 349 350 352 352 352 352 347 344 343 344 345 346 346 346 346 347 347 346 347 344 329 328 327 327 343 345 346 347 349 349 349 350 352 353 355 365 362 353 351 351 346 335 342 356 344 339 334 326 322 320 320 322 323 327 327 326 327 327 328 330 331 330 327 329 330 337 330 326 326 326 323 322 319
340 342 343 345 347 347 347 346 347 348 348 349 351 351 351 350 347 343 341 340 342 345 347 346 346 346 347 348 357 350 346 346 328 327 326 326 337 345 346 347 347 348 348 347 348 351 352 365 368 360 353 350 335 333 339 357 344 339 335 329 326 321 318 320 322 323 325 326 327 329 328 329 329 329 335 337 339 341 334 330 328 325 322 321 320
341 342 343 344 346 347 348 349 349 349 348 348 348 347 347 344 344 344 344 344 344 345 346 347 345 345 347 348 351 352 346 345 341 326 325 325 332 346 346 345 345 346 346 346 346 344 348 353 363 349 339 335 328 327 333 342 345 340 335 332 326 321 319 321 325 325 329 327 325 325 325 325 324 324 325 329 333 336 332 330 326 325 322 320 322
342 339 339 340 341 344 346 346 346 347 348 347 347 348 347 344 344 345 345 344 344 344 343 341 341 341 343 345 348 347 345 341 334 323 323 324 328 346 346 346 345 346 345 349 345 344 344 347 349 345 332 328 323 322 323 330 343 341 337 334 331 326 325 324 331 333 327 327 327 325 324 324 323 323 324 324 326 326 326 324 323 322 321 319 318
336 335 334 334 336 338 341 344 346 346 346 346 345 345 346 346 345 345 346 346 345 342 340 339 337 335 337 342 341 342 346 346 333 323 321 321 323 334 347 348 348 346 345 346 344 342 344 345 346 341 325 323 320 317 317 324 331 343 338 324 317 320 326 332 329 326 324 324 324 324 323 323 323 321 323 323 324 325 321 321 321 321 321 320 319
332 332 332 331 330 332 334 336 340 345 345 345 345 344 345 345 345 345 345 344 341 340 339 339 337 334 335 336 339 339 338 339 337 333 323 318 320 325 334 345 336 351 346 345 344 343 342 342 344 341 319 317 314 314 317 322 335 335 317 313 316 321 331 328 327 323 323 323 322 322 322 320 320 319 320 320 322 323 321 321 321 321 322 322 320
330 329 329 327 327 327 329 331 333 336 342 346 345 344 345 345 345 344 345 342 339 339 339 339 337 337 338 337 338 336 336 335 335 336 329 318 317 319 324 327 330 346 348 345 343 340 339 337 336 318 311 306 309 313 317 326 333 312 314 314 321 328 328 325 322 323 324 323 323 321 320 320 319 318 320 320 320 319 319 319 319 319 318 318 320
328 326 324 324 323 322 324 325 326 327 329 333 341 344 344 345 344 345 345 340 338 339 340 340 338 338 337 338 336 334 334 334 333 334 332 327 318 316 320 320 318 323 343 340 341 333 321 317 311 309 309 308 310 314 317 318 313 312 313 320 335 328 326 324 324 323 321 322 321 321 321 321 319 320 322 322 323 321 319 318 319 318 317 318 318
328 326 325 323 321 321 320 320 320 321 323 327 331 338 342 344 344 344 344 340 339 338 339 340 339 338 337 338 336 334 333 332 332 334 336 335 327 320 320 326 336 333 331 323 320 315 312 311 310 310 312 317 326 329 327 321 315 317 321 329 328 327 326 324 323 322 321 322 322 321 322 323 322 321 321 318 316 315 316 315 315 315 315 314 313
327 325 323 322 321 320 318 318 317 314 315 317 324 330 337 342 341 339 338 336 336 338 339 339 338 337 337 337 336 334 333 333 333 332 331 330 330 330 329 327 325 325 329 327 324 322 321 324 321 319 323 324 327 325 323 321 325 329 330 329 328 327 326 324 323 322 323 322 322 321 321 322 323 320 316 315 315 316 318 318 314 315 316 314 313
325 323 322 323 323 321 319 322 318 313 312 310 310 314 318 324 336 339 337 336 336 336 339 339 339 338 337 336 333 332 331 331 331 330 329 330 329 329 330 331 330 329 326 327 328 328 326 322 322 326 326 326 326 326 328 329 329 329 328 327 327 328 330 330 329 325 323 322 321 322 324 322 318 317 318 317 317 319 319 318 317 316 317 314 311
326 324 325 324 324 325 323 322 320 318 315 313 309 306 306 310 316 325 330 337 339 338 337 337 339 339 339 335 332 330 330 329 330 325 331 323 329 330 330 330 329 329 329 322 329 329 328 328 327 327 327 327 327 327 327 327 327 327 327 326 327 328 327 325 322 321 321 321 321 322 320 319 319 320 320 319 319 317 317 317 317 315 315 313 311
326 324 324 323 324 325 325 324 322 321 320 318 315 313 309 301 301 309 321 326 328 324 324 336 337 336 333 327 326 331 330 330 315 307 305 308 313 316 318 316 316 324 321 320 328 327 326 326 326 326 326 326 325 325 325 325 325 324 324 325 325 325 325 324 322 321 322 322 322 320 318 319 318 318 318 318 317 317 317 318 315 317 313 310 311
328 326 327 325 326 326 325 324 323 321 320 320 320 318 315 311 300 299 306 309 307 306 308 311 318 323 330 323 314 315 315 309 303 301 301 302 303 303 304 304 307 309 313 327 328 327 327 326 326 326 326 326 325 324 325 324 323 322 322 322 324 326 325 322 320 322 323 322 321 319 318 317 316 317 317 317 317 316 316 318 316 314 312 312 309
326 325 324 325 327 324 323 324 324 323 320 320 319 320 318 316 314 302 298 302 302 300 301 302 303 307 311 316 318 312 308 303 300 300 300 300 302 303 302 304 304 306 310 318 329 327 328 327 326 326 326 325 325 326 324 322 321 321 321 322 323 324 321 320 320 322 322 321 318 317 316 316 316 317 317 317 317 315 314 313 312 312 310 309 310
326 326 327 327 328 328 325 322 322 321 319 319 318 319 320 320 318 315 310 300 299 298 298 298 298 299 300 302 307 308 305 301 299 299 300 301 301 302 302 302 303 305 313 326 328 327 327 327 326 326 325 324 323 322 321 320 319 320 321 322 323 321 320 319 320 322 322 319 317 315 316 316 317 318 319 318 315 312 313 312 311 312 312 313 316
328 328 328 328 326 325 323 321 320 319 321 319 319 318 320 321 322 322 321 320 317 308 302 298 298 299 297 296 298 298 298 298 298 299 300 301 301 302 304 308 301 307 317 328 327 326 327 327 327 326 325 325 324 323 322 321 321 322 323 323 322 320 320 321 321 321 319 318 315 316 316 315 317 316 314 312 312 313 312 312 310 310 308 309 308
332 335 334 331 325 324 321 319 320 321 321 319 319 320 320 322 324 323 322 320 318 317 316 313 302 298 305 302 296 297 297 298 299 299 300 302 303 302 306 327 329 328 328 328 328 328 327 327 327 326 326 326 325 325 324 324 323 323 322 321 320 320 321 320 319 318 317 315 315 315 315 315 315 315 314 312 311 311 311 312 311 310 309 309 306
328 328 327 327 324 323 322 321 322 321 321 320 320 321 321 321 321 321 320 322 320 317 315 312 312 308 301 296 296 298 298 298 300 301 302 303 302 307 330 328 329 329 329 329 328 329 329 328 328 327 327 328 328 327 325 324 323 322 321 321 321 321 319 318 318 316 316 315 315 316 315 315 315 314 312 312 313 312 312 312 311 312 311 309 307
326 326 325 324 322 322 322 322 320 321 324 322 320 320 322 322 323 320 320 319 319 318 316 315 317 318 318 319 311 300 299 300 300 300 301 303 306 322 330 330 329 330 330 329 329 329 328 328 329 328 327 327 327 325 324 323 323 322 324 322 322 320 318 317 317 318 315 314 314 315 315 314 314 313 313 312 312 312 312 314 313 315 314 313 312
327 326 325 325 323 323 321 320 320 325 321 319 319 320 322 321 322 322 320 319 320 319 319 321 324 321 320 321 328 324 317 308 308 310 310 311 318 324 324 328 329 328 328 328 329 329 327 328 327 327 327 327 325 323 324 324 323 322 323 322 321 320 324 321 322 316 316 315 315 315 315 314 314 314 314 313 312 312 313 314 311 311 313 315 309
324 327 326 326 325 322 320 321 321 320 319 319 319 320 321 320 320 319 319 320 320 320 320 319 319 320 320 321 322 327 328 327 326 325 323 322 322 322 323 324 325 325 327 326 329 328 327 326 325 325 325 325 325 324 324 324 323 322 322 322 320 321 320 317 316 315 316 315 315 314 314 314 313 314 314 313 313 313 312 311 310 310 309 306 305
322 321 323 324 322 322 322 321 322 320 321 319 319 320 321 320 319 319 319 319 319 319 319 320 320 320 321 321 322 323 326 326 325 325 325 323 323 323 323 323 323 324 324 325 324 325 325 325 326 326 325 325 325 325 325 324 323 323 323 322 321 320 319 317 315 315 315 315 315 315 314 314 314 315 313 312 313 312 310 309 310 309 306 305 306
324 325 325 325 323 320 323 324 320 319 319 319 319 319 319 320 321 321 320 320 320 320 321 321 321 320 320 316 312 314 324 324 325 325 325 325 325 325 323 323 324 323 324 324 325 326 326 326 327 327 327 326 326 326 326 325 324 324 323 323 322 321 319 317 316 316 315 316 316 317 317 315 315 314 312 310 315 311 310 309 309 307 308 307 307
321 321 323 323 325 325 323 327 322 321 321 324 320 321 324 322 319 319 321 321 322 321 321 319 318 317 311 306 302 304 317 321 322 323 324 326 326 326 326 324 324 325 324 324 324 325 325 325 325 326 326 326 326 326 325 325 324 324 323 323 322 321 319 318 317 317 317 318 319 318 316 315 314 314 313 315 311 309 308 306 305 305 305 305 304
324 322 322 325 323 324 324 324 323 320 321 321 321 328 326 320 319 321 321 321 322 321 320 319 319 319 316 309 307 305 314 316 328 322 323 322 322 323 322 324 324 324 324 324 325 325 325 324 323 324 325 325 326 326 325 324 324 323 323 323 322 320 319 318 319 319 320 319 317 317 315 315 314 313 312 312 309 308 306 306 305 303 303 302 303
325 326 326 326 325 326 326 323 321 321 321 324 325 325 325 321 321 320 319 320 320 320 320 319 320 319 319 315 309 310 315 318 321 321 320 321 320 321 322 323 323 323 324 323 322 321 321 320 319 318 317 317 319 322 325 325 325 323 322 321 321 320 319 319 319 318 318 316 315 314 313 313 313 313 313 311 307 307 307 306 305 303 301 300 300
329 328 326 326 327 325 323 323 322 322 324 326 323 324 326 320 319 318 319 319 322 319 318 319 320 320 319 319 318 318 319 319 321 320 319 319 320 320 321 322 322 321 321 321 321 321 320 318 317 315 314 313 314 315 316 319 322 324 322 322 320 320 319 319 319 318 317 315 313 312 311 311 310 310 310 309 309 308 308 306 304 306 302 301 300
322 325 325 323 322 322 322 323 328 323 323 321 321 321 321 318 318 320 320 319 319 318 318 318 318 318 319 318 318 316 318 319 318 318 319 319 319 319 319 320 321 321 321 321 320 320 319 317 315 314 312 311 311 311 311 311 312 314 316 318 320 320 320 320 319 317 315 314 313 312 312 310 308 309 312 308 306 305 304 304 304 303 301 301 300
323 324 322 322 319 319 320 321 319 319 319 320 321 320 318 317 317 319 322 319 318 321 316 316 317 316 315 315 315 316 319 318 318 318 318 319 318 318 319 320 320 320 319 319 319 319 317 315 314 313 312 310 310 309 308 308 308 309 310 311 313 314 314 315 316 316 314 314 314 312 310 309 308 310 312 308 305 305 305 304 303 302 301 302 301
325 323 320 321 318 316 318 319 320 322 317 318 319 320 318 317 317 318 316 318 319 319 317 316 315 314 316 316 318 317 318 319 320 320 319 319 318 318 319 319 319 319 318 317 317 316 315 314 312 311 310 310 309 307 306 305 306 306 306 306 308 310 311 308 312 312 312 312 311 310 310 309 309 308 306 305 304 303 303 302 303 302 302 302 301
320 318 317 315 316 316 316 316 316 311 312 313 316 318 317 317 316 316 317 316 317 316 316 316 313 314 314 315 316 317 319 320 318 318 318 317 317 318 318 317 317 317 316 316 315 315 313 312 311 310 309 308 306 306 305 305 304 304 304 304 302 299 300 302 306 309 307 312 310 309 308 308 307 307 306 305 304 303 303 302 302 303 303 303 302
320 321 318 319 318 315 317 315 312 311 311 310 310 313 316 316 314 314 313 313 313 313 315 316 313 312 313 314 316 317 317 318 318 317 317 317 317 317 317 316 316 316 316 314 314 313 312 310 309 308 307 306 305 303 302 301 300 299 299 299 298 298 298 300 302 302 307 308 307 307 306 306 305 305 305 304 303 302 302 302 302 302 301 300 301
324 321 319 318 316 314 313 312 312 312 310 309 306 308 311 311 311 312 312 312 311 312 314 311 312 313 313 314 316 316 315 316 317 317 317 317 317 316 317 316 316 315 314 313 311 310 309 308 307 306 305 304 302 300 299 298 297 296 295 294 292 291 294 299 305 298 299 301 306 306 305 305 304 303 302 301 300 301 303 304 302 301 301 300 301
Wind_Speed
10 10 9 9 10 11 10 9 9 7 8 8 8 8 7 6 6 7 6 7 6 6 6 7 8 8 7 7 7 6 6 6 5 5 5 5 5 4 4 4 4 5 4 5 4 4 4 5 5 5 5 5 5 5 6 6 4 5 4 3 4 4 5 5 4 4 3 1 2 1 1 0 1 1 1 1 1 1 1 1 1 2 3 2 3
10 10 9 8 9 10 10 9 8 7 8 8 8 8 8 8 8 7 8 8 8 8 7 6 7 8 8 8 7 7 6 7 6 6 6 5 5 5 5 5 5 6 5 5 6 5 5 5 5 6 4 5 5 5 5 5 5 5 5 6 6 5 5 5 5 3 4 1 1 0 0 1 0 1 2 2 2 2 2 2 2 4 3 2 3
9 9 9 8 9 9 8 8 8 8 8 7 9 9 8 9 8 8 8 7 7 8 9 8 7 8 8 7 6 7 7 7 7 6 7 7 7 6 6 6 6 6 6 7 7 6 6 5 6 5 4 4 5 5 3 3 4 5 7 5 5 5 5 5 4 4 4 3 2 1 1 1 2 1 1 1 2 2 2 3 3 4 3 3 3
9 9 9 9 9 9 9 8 9 8 9 8 8 9 9 9 8 9 9 8 8 8 8 8 7 8 8 8 8 7 8 8 8 8 8 8 8 8 7 7 7 7 7 7 7 7 7 6 6 6 5 5 5 4 2 3 3 5 6 4 4 4 4 4 4 4 3 3 1 2 2 1 0 0 1 1 1 2 2 3 5 5 4 4 5
8 10 11 11 10 10 11 10 10 10 10 9 9 9 9 9 9 9 9 8 8 8 8 8 9 9 9 9 9 9 8 9 9 8 8 8 9 9 8 8 7 7 8 8 8 7 7 6 6 5 4 5 3 1 1 2 1 5 5 2 5 4 3 3 3 2 3 4 2 0 1 1 0 0 1 0 1 2 3 3 4 4 4 4 5
6 9 10 12 11 11 11 11 12 12 11 10 10 9 9 9 10 10 9 10 9 9 9 9 9 11 11 11 10 10 9 9 9 9 9 9 9 9 9 8 8 8 7 7 7 7 7 7 7 6 6 6 5 6 4 4 4 6 7 4 3 3 3 2 2 3 3 4 3 1 1 2 1 0 1 1 0 0 2 2 3 4 4 5 4
5 8 10 11 11 12 12 12 12 12 12 12 10 9 9 10 10 10 10 10 10 8 9 10 10 11 12 11 11 10 10 9 9 10 10 10 10 10 10 9 8 8 7 8 8 8 8 7 7 7 7 7 6 5 6 5 6 8 8 6 4 4 4 4 4 4 4 3 2 2 2 1 2 1 0 1 2 1 2 1 1 2 3 5 6
7 6 8 11 11 12 11 11 12 12 12 12 11 10 8 9 10 10 8 9 10 10 10 10 10 9 10 11 11 10 9 8 8 9 9 9 9 9 10 9 9 8 8 8 8 8 9 8 8 7 7 7 6 6 7 8 6 7 6 5 5 5 4 4 4 4 4 3 3 3 2 2 0 0 1 2 1 0 1 2 3 1 2 2 6
6 7 6 8 10 10 9 10 9 11 11 12 12 12 11 9 8 8 9 9 9 10 11 11 10 10 9 10 10 10 10 10 8 9 9 9 9 9 10 9 9 9 9 9 8 8 8 8 8 6 7 8 10 8 9 8 7 6 5 4 5 5 4 3 4 4 3 3 3 1 3 2 3 2 1 0 2 4 2 1 2 3 2 4 5
7 7 7 8 6 6 6 6 7 7 9 10 11 12 11 10 10 9 10 10 10 9 9 10 11 11 11 9 9 9 9 9 10 16 14 10 9 9 9 9 9 8 8 8 7 7 8 7 7 11 12 13 12 11 10 9 9 7 6 6 5 5 5 4 5 4 4 5 5 4 4 5 4 4 3 3 2 1 2 2 3 4 3 3 3
8 7 8 7 7 6 6 6 6 6 6 8 9 11 12 11 11 11 11 11 11 9 9 10 10 11 12 11 11 10 9 8 15 17 17 17 11 9 9 8 8 9 8 8 8 8 7 6 6 9 11 11 9 12 12 11 11 9 8 10 8 7 6 5 5 5 6 6 4 3 5 5 4 3 3 3 3 3 3 3 4 4 4 4 3
7 8 8 7 8 8 8 7 7 7 6 7 7 10 11 10 10 10 11 11 11 10 10 11 10 10 10 11 12 11 9 11 16 16 17 17 15 10 9 8 7 7 8 8 7 7 6 6 5 5 5 6 5 6 8 11 11 9 9 9 11 10 7 6 6 4 4 5 4 5 4 4 4 4 3 3 4 3 4 3 3 5 5 4 3
6 7 7 7 7 8 8 8 9 8 7 6 6 7 9 11 11 9 11 11 11 11 11 11 11 11 11 12 12 11 9 13 15 16 16 17 17 13 8 9 9 8 8 7 7 7 6 7 6 5 5 11 7 4 4 5 8 9 8 8 6 6 4 2 4 5 5 5 5 5 5 3 4 4 3 3 3 3 3 3 3 4 3 4 4
5 5 4 6 6 6 6 6 7 7 7 6 6 6 7 10 11 10 8 9 11 11 12 13 11 11 11 12 11 10 10 12 16 16 15 16 17 13 7 8 8 8 8 8 7 7 7 7 7 6 4 4 4 6 5 5 5 3 3 4 3 3 5 4 3 4 6 5 5 5 4 2 4 4 2 2 4 4 5 4 3 4 4 4 5
4 5 6 5 4 4 5 5 6 5 4 5 6 7 7 7 8 9 9 9 10 11 12 12 11 11 12 12 11 11 10 15 16 16 15 15 15 12 7 7 7 7 8 8 8 8 8 8 8 8 7 6 6 7 7 6 5 5 5 3 3 2 2 2 2 2 3 3 4 3 3 1 2 2 1 1 2 3 5 5 5 5 6 7 7
5 5 4 3 4 4 4 4 5 5 5 5 6 8 8 9 8 7 6 6 7 8 9 10 11 10 10 11 11 11 10 15 17 17 16 16 14 7 6 6 7 7 7 7 7 7 8 8 8 7 7 8 9 14 10 7 7 7 5 4 3 2 2 2 2 4 4 4 3 4 3 2 2 1 1 1 3 6 7 6 6 6 8 6 6
7 8 7 6 5 5 5 5 6 7 6 7 8 8 8 9 8 6 6 6 6 7 9 10 10 10 10 10 11 10 9 13 17 17 16 14 8 6 6 7 7 8 8 7 7 7 7 7 7 8 7 7 10 13 12 12 8 8 7 5 3 3 3 3 7 8 9 9 8 7 5 5 3 1 2 4 5 8 8 7 6 6 8 7 4
4 5 6 8 9 8 8 8 8 8 7 8 9 8 7 6 7 3 4 5 7 8 7 8 9 10 10 11 11 11 10 12 17 17 17 15 14 10 9 8 8 8 7 6 7 7 8 13 11 8 8 8 11 14 15 12 9 8 8 8 6 5 3 3 4 4 7 8 7 5 4 4 4 3 5 8 11 10 10 8 7 5 6 6 6
3 4 6 6 6 7 8 9 9 9 10 10 9 8 7 5 1 5 3 3 6 5 6 7 7 8 9 10 12 12 9 10 16 17 16 16 13 8 8 8 8 8 7 6 4 5 6 10 15 11 9 9 13 14 16 12 9 10 10 8 7 6 6 6 7 6 4 4 3 3 5 6 4 3 3 10 10 5 4 7 6 6 7 6 7
4 3 2 3 4 5 5 7 8 9 9 8 7 8 6 2 3 5 9 9 10 8 5 6 8 7 7 8 8 9 8 6 9 15 15 14 15 9 7 7 8 8 7 6 6 4 5 6 9 13 13 11 13 14 14 14 10 8 8 9 9 9 7 6 5 7 6 6 6 5 6 6 5 4 4 4 3 3 4 6 6 7 7 6 4
2 1 2 2 2 3 4 7 8 9 8 8 7 7 8 9 10 8 8 7 8 6 3 5 6 2 5 5 7 6 6 7 4 10 12 13 13 11 6 7 8 7 7 7 7 7 5 5 4 8 12 11 12 14 14 13 12 10 10 11 11 10 10 8 8 10 8 7 7 7 7 6 5 4 4 4 4 5 6 6 5 5 7 8 7
1 1 0 1 2 3 5 5 6 7 7 7 7 8 7 7 9 10 9 9 10 3 5 7 3 8 7 2 4 4 3 7 7 7 11 13 15 14 8 8 8 7 7 7 7 6 7 6 6 7 10 9 10 11 12 12 11 6 3 3 11 16 10 8 9 8 7 7 7 7 5 4 2 4 4 5 5 6 7 7 7 8 6 5 6
0 0 0 0 1 2 4 6 8 5 6 8 9 10 9 9 9 9 9 8 4 7 9 9 9 7 6 3 2 3 4 4 7 6 8 10 13 13 11 7 8 7 9 9 9 8 6 6 5 6 8 8 9 11 13 13 11 8 11 11 13 11 10 8 8 8 7 7 7 5 4 5 4 4 5 6 6 7 8 8 8 9 9 8 8
0 1 1 2 2 3 4 6 5 6 7 6 8 9 8 9 9 8 8 6 7 8 8 9 8 9 9 5 4 3 3 3 4 6 5 5 5 8 6 5 5 4 5 7 6 3 4 2 3 9 9 10 10 10 12 11 7 12 15 16 17 14 9 9 7 7 7 6 6 6 5 4 4 5 5 6 7 8 8 9 9 9 9 8 7
1 0 1 1 2 3 3 4 5 4 5 7 8 8 10 9 8 8 8 8 9 10 13 12 13 13 9 8 7 6 5 4 4 6 8 7 6 6 6 5 2 3 4 3 4 3 4 8 11 10 9 10 11 10 8 9 14 16 18 19 15 9 10 9 8 7 7 6 6 6 5 4 4 5 4 6 8 8 9 8 8 8 7 7 7
1 1 0 1 2 3 4 4 5 5 6 5 7 7 6 6 8 7 9 9 11 13 12 10 11 10 9 7 7 7 6 5 4 4 6 7 3 3 4 5 6 8 8 7 9 10 9 10 11 11 10 10 9 7 7 8 14 19 21 19 11 10 10 9 8 8 8 7 7 6 6 5 4 4 5 6 8 7 8 8 8 6 6 7 8
1 1 1 2 3 3 4 4 5 6 7 7 6 6 5 5 5 6 6 8 11 12 12 11 10 10 10 8 7 7 7 6 6 5 4 4 4 4 5 6 8 9 7 6 7 6 7 6 5 6 1 9 11 11 12 15 15 14 11 9 10 9 9 9 9 9 9 8 7 6 5 5 5 6 6 7 7 6 6 7 7 6 6 6 8
1 1 2 2 3 3 3 7 6 5 7 8 8 7 3 3 4 6 7 9 12 12 10 10 11 11 10 9 8 8 7 6 6 7 6 6 5 5 6 6 6 7 7 5 5 6 6 8 7 4 5 5 6 7 6 6 8 9 8 8 8 8 8 11 10 7 7 7 6 5 5 6 6 6 6 6 6 6 5 6 7 6 5 6 6
1 1 1 2 3 3 3 3 3 4 5 3 4 5 5 5 3 4 4 7 9 9 5 4 8 9 10 11 11 8 7 8 7 5 7 9 9 8 6 6 6 5 8 11 9 7 7 7 7 6 5 7 8 8 8 8 6 7 9 8 8 9 8 8 8 8 7 6 6 6 7 6 6 5 6 6 6 6 5 6 5 7 3 5 7
1 1 1 1 3 3 3 3 3 4 3 3 2 1 6 7 4 2 3 5 10 10 11 7 6 6 7 4 4 10 10 6 9 12 10 9 7 8 8 8 8 9 12 12 9 7 6 6 6 7 7 5 6 9 9 8 8 8 7 7 7 8 8 7 7 7 7 6 6 7 7 7 6 6 6 6 5 5 5 7 5 4 4 5 7
1 1 0 1 2 4 4 4 4 4 4 5 4 2 2 8 14 12 6 8 10 10 10 13 15 12 10 7 5 10 12 14 14 12 11 10 11 12 12 12 14 14 13 10 6 6 7 7 7 6 7 7 7 6 7 8 8 8 8 7 6 7 7 7 7 7 7 7 6 6 6 7 6 6 6 6 6 6 5 4 5 5 6 6 6
2 2 2 2 3 3 4 3 4 3 5 4 4 3 2 7 9 13 12 15 16 15 15 15 14 14 11 10 9 6 7 11 14 13 12 12 13 13 13 14 14 13 10 9 8 6 6 7 7 6 7 7 6 6 7 7 7 8 8 8 7 6 7 7 7 7 7 7 6 6 6 6 6 6 6 6 6 6 6 6 6 5 5 4 5
1 1 0 1 3 4 4 4 4 4 4 5 5 4 3 5 8 9 12 16 19 19 17 15 15 13 13 11 9 11 11 9 9 11 12 13 14 13 13 12 10 8 8 6 7 7 6 7 7 7 7 7 7 7 6 7 7 7 7 7 7 6 6 6 7 7 7 6 6 6 5 5 5 5 5 6 7 6 6 6 6 6 6 6 4
1 1 0 0 2 4 4 5 4 3 2 3 4 4 5 4 6 6 7 7 11 15 18 18 14 15 14 13 12 10 9 10 10 11 12 13 13 13 11 6 5 3 3 6 6 7 6 7 7 6 6 7 7 7 7 7 7 7 6 5 5 6 6 7 7 7 6 6 6 6 5 6 6 7 6 6 6 6 7 6 7 7 6 6 6
1 3 8 6 2 4 5 4 2 1 4 5 5 5 5 5 6 7 8 6 7 8 7 9 12 13 10 9 11 11 9 10 12 13 14 15 14 12 10 8 6 4 5 3 4 6 6 6 6 6 7 7 7 7 7 6 6 5 5 5 6 6 7 7 7 7 7 6 6 6 6 6 6 6 7 7 6 6 6 6 6 6 7 6 7
2 2 4 5 4 3 3 2 2 2 2 4 5 5 5 5 7 7 6 7 6 9 9 8 6 7 13 13 12 12 11 12 13 14 14 13 10 7 6 5 6 5 5 4 4 4 4 5 6 6 6 6 6 6 6 6 6 5 5 7 7 7 7 7 7 7 7 7 7 6 6 6 6 6 6 6 6 7 6 6 6 4 6 7 7
1 1 3 3 4 4 4 4 3 3 3 3 5 5 5 5 6 6 6 6 6 6 8 7 7 7 8 7 9 11 12 12 12 12 10 7 3 3 4 4 5 5 5 5 4 4 5 4 5 5 5 6 6 6 6 6 6 6 6 7 7 7 7 7 8 7 7 7 6 7 7 6 6 6 7 7 5 5 5 4 4 4 5 7 7
1 0 2 3 4 4 5 4 3 4 5 5 5 5 5 5 6 6 6 5 5 6 6 5 6 7 7 5 8 6 8 9 11 8 6 4 5 5 5 5 4 4 4 3 3 4 4 4 5 5 5 5 6 6 6 6 6 6 6 6 7 7 8 9 9 8 8 7 7 7 7 7 7 7 6 7 6 6 5 5 5 5 5 8 7
3 2 4 4 4 4 4 4 3 4 4 4 6 6 5 5 5 5 5 5 5 5 5 5 5 5 6 5 4 6 10 6 5 5 3 3 3 4 4 4 3 2 1 2 3 5 5 5 3 5 5 6 6 6 6 6 6 6 6 7 6 6 7 7 8 8 8 7 7 7 7 7 6 6 6 6 6 6 6 6 5 6 7 7 7
2 2 4 8 4 2 2 1 2 3 3 3 6 5 5 5 5 5 5 5 6 5 4 6 5 4 4 5 5 4 6 6 5 5 4 2 1 2 2 2 3 2 1 3 5 5 6 5 5 6 6 6 6 6 6 6 6 7 7 7 8 8 8 8 8 8 8 7 7 7 7 7 6 6 6 6 7 6 7 7 6 5 5 6 6
3 0 1 2 2 2 2 0 1 1 0 1 3 4 5 5 5 4 5 6 6 5 5 5 5 4 5 7 6 5 5 5 3 2 2 1 0 0 1 1 1 1 3 4 5 5 6 6 6 6 6 6 5 6 6 6 6 7 7 7 7 7 7 7 7 7 7 7 7 7 6 6 6 6 6 4 5 6 6 6 6 5 5 6 7
5 5 5 5 6 5 4 2 2 1 0 1 2 2 3 4 4 5 6 6 5 5 6 5 4 4 4 7 6 6 5 3 2 2 1 1 1 1 2 2 3 4 5 5 7 7 6 6 6 6 6 6 6 6 6 6 7 7 7 7 7 8 7 7 7 7 7 6 5 5 5 5 5 6 7 6 6 6 6 6 6 6 6 6 6
5 4 4 4 4 4 3 2 2 1 1 1 1 2 3 4 4 4 6 5 5 5 5 5 3 3 2 2 3 3 1 1 3 3 3 3 2 2 2 4 5 4 3 5 6 6 7 6 6 5 6 6 6 6 7 6 6 6 6 7 7 7 6 5 5 5 5 5 5 4 5 5 6 6 6 6 7 7 7 6 6 6 6 6 6
6 6 5 5 5 5 3 2 3 2 2 2 1 2 3 3 3 4 5 5 5 4 5 3 3 3 3 2 1 1 2 2 3 4 3 3 4 5 5 6 6 5 6 6 6 7 7 7 6 5 5 4 4 4 6 5 6 6 7 7 7 8 8 7 7 7 7 7 6 5 4 5 6 6 6 6 7 7 6 6 6 6 6 6 6
7 6 5 5 5 5 5 4 5 4 3 3 2 2 2 3 4 3 3 4 3 3 3 3 3 3 1 1 2 2 1 4 4 5 5 6 6 6 6 6 6 7 7 6 6 7 7 7 7 6 6 5 4 4 3 2 3 5 6 8 8 7 7 7 7 6 6 6 6 6 5 5 6 6 7 6 6 6 7 7 7 6 6 6 7
4 4 5 5 5 4 5 5 4 5 5 5 5 4 3 3 3 3 3 3 3 4 3 3 2 1 2 2 1 2 5 6 5 5 5 6 6 6 6 6 6 6 6 6 6 6 6 7 7 7 6 5 5 5 5 4 4 3 3 3 5 5 5 6 6 7 7 8 8 7 7 6 6 6 7 6 6 6 6 6 6 7 7 7 6
4 3 3 3 4 3 3 3 5 5 6 7 6 6 5 4 4 3 3 4 3 3 3 4 3 3 2 1 4 4 6 7 6 4 5 5 5 6 6 7 7 7 6 6 6 7 7 7 6 7 6 5 6 6 5 5 5 5 4 4 4 5 4 5 5 6 7 7 8 8 8 7 6 6 7 6 6 6 6 7 7 7 7 7 7
3 3 5 3 3 3 3 4 5 5 5 6 6 6 5 5 4 4 4 4 5 4 4 4 2 2 2 3 4 5 6 7 6 5 5 5 5 6 6 6 7 7 7 7 6 7 7 6 6 6 6 6 6 6 6 6 5 5 5 5 4 4 6 6 5 5 5 5 5 6 7 7 7 7 7 7 7 7 7 6 6 6 7 6 6
5 4 5 4 4 4 5 6 5 7 6 6 6 7 6 5 5 4 4 5 5 5 4 3 2 1 3 3 4 6 7 7 7 6 6 6 5 6 6 6 6 6 7 7 6 7 7 6 6 6 6 6 6 6 6 6 6 6 5 5 7 11 12 10 6 6 7 7 6 7 7 7 7 7 7 7 7 6 7 7 7 7 6 5 5
6 5 5 4 4 5 5 5 5 5 4 5 6 6 5 5 4 4 4 3 1 3 4 3 4 2 5 6 4 6 7 7 7 7 7 6 6 6 6 7 6 6 7 7 6 6 6 5 6 6 6 6 6 6 6 6 6 6 5 5 8 12 13 13 11 10 8 5 6 6 7 7 6 6 6 6 6 7 7 6 6 6 6 6 6
4 4 3 2 3 4 5 5 4 3 5 6 6 6 6 4 4 4 6 4 3 2 2 5 5 5 4 5 4 6 6 6 6 7 7 7 6 6 7 7 7 7 7 7 6 6 6 5 6 6 6 6 6 6 5 6 6 6 8 10 11 11 10 9 8 9 12 8 6 7 7 7 7 7 6 6 7 7 7 7 6 6 6 6 5
Wind_Direction
185 188 188 193 189 192 195 196 197 193 190 183 183 189 186 190 194 208 212 211 194 187 194 198 199 200 195 193 188 187 189 190 188 181 186 198 208 209 215 205 216 231 232 248 248 248 248 253 262 267 262 240 225 224 221 217 200 213 213 194 214 208 188 195 204 255 295 244 147 199 265 125 8 53 81 359 339 329 329 293 315 70 71 38 332
187 188 191 196 191 190 192 193 194 193 189 189 187 188 191 194 196 198 202 209 202 197 192 185 190 191 194 194 193 188 188 192 193 183 188 195 207 206 212 208 213 228 225 236 243 242 241 243 266 278 265 230 216 210 213 208 202 210 215 209 222 221 185 174 205 198 249 311 81 291 20 32 41 38 27 345 346 360 360 1 13 62 58 46 25
186 184 191 196 195 191 191 193 194 198 193 190 196 193 195 199 199 200 206 202 201 200 200 194 180 183 187 191 190 194 190 196 197 192 197 196 200 211 211 203 209 221 225 231 233 235 243 244 253 257 251 242 236 235 178 192 204 213 221 207 212 213 201 194 165 206 233 263 220 200 172 12 74 333 356 319 333 344 3 12 38 68 58 38 21
187 186 190 197 195 191 193 195 198 200 205 202 202 202 196 201 202 203 204 198 194 199 196 196 188 186 188 189 192 192 194 198 201 201 203 200 203 210 214 212 212 216 222 227 230 228 232 243 249 246 249 249 254 261 240 220 180 210 222 212 207 217 203 183 185 181 208 220 287 166 160 98 310 352 313 31 26 12 25 51 61 62 50 41 42
186 190 191 196 197 195 195 196 200 204 207 211 212 209 204 203 205 207 204 203 196 194 199 195 194 193 196 194 195 194 193 197 200 206 208 207 208 211 214 216 218 218 220 226 229 224 226 228 237 241 243 241 261 353 91 267 2 39 325 270 202 205 180 176 178 150 162 207 248 24 119 89 264 343 347 350 346 19 34 59 90 95 78 63 74
177 191 194 195 197 197 196 196 200 204 208 213 216 214 211 205 203 208 205 207 200 194 196 196 196 199 201 200 199 203 199 193 196 203 208 211 212 213 216 216 217 218 219 220 225 223 223 227 235 237 239 229 199 208 200 204 181 168 197 222 207 171 181 192 162 178 185 214 204 200 91 104 17 332 323 72 78 54 47 49 110 122 119 109 86
173 187 197 199 197 200 197 197 197 202 205 211 215 214 215 210 202 202 202 205 206 196 200 199 201 199 202 200 202 206 206 202 201 204 209 210 209 211 216 215 215 215 216 216 220 223 223 227 230 227 225 215 217 212 211 208 194 187 196 193 187 176 185 196 181 186 196 221 243 190 148 116 138 190 316 93 120 141 154 117 65 106 147 133 101
180 181 196 202 200 200 201 199 198 199 202 207 213 215 214 213 208 207 198 199 205 202 199 201 202 199 198 199 201 202 204 204 204 210 213 210 205 208 211 212 213 218 220 219 219 221 221 222 223 219 216 213 209 207 191 197 197 190 196 177 178 176 192 193 181 185 196 205 220 210 180 159 107 111 71 58 64 290 189 148 164 150 99 94 132
184 186 190 204 208 200 194 198 198 200 202 203 208 214 215 215 206 203 206 207 201 198 199 197 201 205 199 197 199 201 204 207 206 205 209 210 207 208 209 210 212 217 221 223 222 222 223 222 223 217 212 205 204 191 192 188 181 193 199 178 176 182 193 191 194 187 203 199 233 219 148 154 186 164 225 162 171 207 201 150 158 150 116 114 113
187 193 196 203 208 209 200 194 188 186 194 205 209 211 213 214 214 203 203 207 209 196 193 195 199 204 205 202 198 198 201 205 203 204 202 203 204 208 206 208 210 214 220 225 224 220 220 216 214 208 207 209 210 196 193 198 199 191 185 184 176 180 190 192 192 198 192 207 219 198 194 204 198 187 182 211 185 125 122 131 154 150 136 88 112
192 193 205 203 198 200 205 210 203 200 198 198 206 215 214 212 213 211 206 203 204 200 192 198 199 201 204 204 205 206 203 197 191 195 201 203 199 200 194 198 203 207 210 213 219 218 218 213 208 213 211 218 213 202 195 199 207 208 199 192 185 177 184 191 206 185 195 210 214 201 208 213 213 188 182 178 167 177 187 175 159 162 167 156 136
196 202 201 199 200 198 203 207 209 214 206 206 207 211 216 216 212 209 206 205 204 201 196 197 199 199 202 205 207 208 208 206 189 191 194 200 202 197 196 192 195 198 199 202 211 213 208 204 206 205 205 204 199 204 201 202 201 196 191 196 201 200 185 187 186 188 194 197 209 217 201 212 199 178 186 159 181 175 197 173 172 187 185 177 147
210 210 206 204 211 208 202 203 208 211 215 215 210 213 214 219 219 211 208 205 202 200 200 197 198 198 199 202 207 208 206 208 197 195 194 196 201 195 196 201 202 204 202 203 205 208 203 200 206 213 213 210 196 184 188 197 194 189 179 169 132 113 99 124 195 192 171 184 197 220 213 189 179 195 177 168 152 160 151 161 185 200 184 138 120
208 221 217 223 224 220 215 214 218 216 213 217 222 220 218 217 219 215 211 208 204 205 204 202 198 197 199 201 205 206 206 207 202 200 199 199 204 207 201 202 203 200 200 197 196 196 194 194 199 211 213 213 177 184 190 187 169 157 121 87 89 95 96 106 107 175 169 183 182 209 222 195 190 182 156 137 155 178 156 170 147 124 111 110 115
219 207 208 215 220 234 236 232 232 236 236 230 225 229 227 229 224 219 210 206 206 205 206 208 205 200 200 200 202 204 207 204 204 205 207 208 210 208 209 203 201 198 198 195 190 191 192 196 196 198 200 203 196 183 184 177 152 134 129 113 90 83 48 32 29 95 106 128 168 165 156 169 145 163 204 165 212 186 162 151 145 124 108 96 93
238 279 278 241 219 214 220 236 245 247 240 239 241 238 234 229 228 219 213 219 217 208 208 207 207 205 204 202 201 204 205 197 202 206 207 209 207 211 212 206 204 200 200 198 196 194 194 193 193 197 198 201 202 192 180 156 144 143 133 126 108 70 38 3 358 79 97 112 120 131 139 119 129 193 225 192 136 110 103 98 94 104 106 103 105
193 195 213 240 250 246 232 225 228 234 238 240 238 240 238 237 238 229 219 214 218 216 208 206 206 203 200 200 200 202 206 197 195 197 198 191 151 208 225 220 213 207 203 200 198 198 195 192 190 197 197 202 197 181 163 151 149 152 149 147 140 115 75 51 62 77 92 94 93 94 94 81 68 308 255 215 143 128 118 112 125 131 117 110 95
221 218 215 212 216 215 218 229 239 236 231 232 237 242 243 243 243 250 261 253 221 217 218 212 204 200 198 201 198 196 205 200 197 201 200 187 181 207 210 203 210 205 206 203 201 203 201 196 193 194 198 203 188 177 166 160 162 161 155 150 152 139 133 142 103 69 74 84 87 93 96 78 53 83 158 152 143 144 144 149 159 131 119 123 122
260 234 235 233 222 216 218 222 225 228 231 232 229 232 232 230 136 82 58 309 282 275 237 216 208 200 198 199 202 198 198 201 195 199 201 196 192 196 191 198 202 209 198 199 208 201 206 207 200 193 195 197 179 178 173 167 166 170 169 158 160 164 171 160 138 125 112 96 52 58 44 43 43 47 114 146 146 121 100 126 136 128 122 118 124
259 265 245 227 225 226 230 227 227 228 230 228 222 223 219 162 192 185 209 226 228 215 225 239 206 202 198 190 202 197 193 194 195 202 203 200 197 191 189 184 203 207 202 182 193 229 223 214 210 193 196 188 178 178 181 176 170 170 162 171 169 182 171 154 152 136 116 93 81 57 45 19 24 40 58 83 78 78 115 126 127 123 119 120 113
79 10 353 333 304 264 233 224 232 232 226 225 223 226 217 218 221 215 217 229 247 250 173 26 337 245 169 180 187 187 184 178 189 194 195 193 198 200 183 195 200 198 191 190 192 198 208 216 216 192 192 185 180 184 189 187 175 170 178 186 191 159 149 144 134 110 101 97 88 74 61 32 14 36 60 73 84 84 81 82 85 101 123 129 120
113 103 67 338 327 325 312 289 248 239 234 223 223 228 225 216 218 218 215 209 209 194 74 81 65 328 320 139 147 141 157 167 169 188 190 188 190 194 186 201 193 180 183 194 192 200 201 199 206 190 180 177 176 183 191 193 175 145 162 101 119 147 148 120 110 106 100 98 91 82 75 82 39 56 62 72 83 90 91 90 89 86 70 80 115
86 164 131 78 358 335 320 319 314 287 241 228 226 230 225 219 220 220 221 218 158 129 137 160 170 175 216 260 143 133 133 143 168 172 188 190 194 200 198 194 182 184 184 194 196 201 195 197 207 167 159 159 168 177 189 187 174 155 141 141 136 114 95 113 112 113 110 105 104 105 103 95 93 86 86 87 83 87 88 89 91 88 84 79 78
140 41 37 13 12 351 332 319 316 321 299 252 228 230 221 214 214 212 214 185 154 155 164 180 182 193 196 174 157 149 132 127 152 159 156 173 197 202 190 145 164 191 187 194 184 159 155 167 142 137 153 152 158 166 178 178 161 144 150 135 130 125 119 109 109 114 115 115 118 120 109 107 101 97 98 99 99 97 93 90 86 87 91 90 88
189 107 64 43 22 353 336 328 321 318 310 313 282 238 226 221 217 205 203 173 175 180 195 186 185 195 193 182 170 151 148 131 132 149 152 157 163 171 173 157 155 134 112 90 98 94 105 124 129 140 150 156 153 138 134 148 155 152 139 135 130 125 123 125 128 130 127 130 130 123 121 128 129 121 118 109 105 97 93 86 83 84 84 82 73
124 84 18 52 38 21 7 344 327 315 303 279 282 282 257 224 221 209 208 188 177 184 199 189 191 190 189 187 172 156 140 135 131 132 142 147 131 166 158 149 131 87 85 94 104 108 112 120 129 139 151 150 139 146 152 156 149 143 140 136 136 136 139 136 139 140 142 138 136 136 140 135 122 119 110 108 103 105 109 105 102 89 91 93 82
123 149 138 94 54 40 29 353 332 322 313 311 297 287 288 257 215 212 224 198 181 192 193 187 186 185 186 177 163 153 150 145 138 128 124 117 118 116 90 78 89 98 98 109 112 113 119 118 141 157 233 197 172 152 140 142 137 137 134 132 134 138 141 144 146 142 140 137 142 144 133 130 127 115 115 111 105 104 110 114 109 113 99 90 93
194 180 152 109 94 70 50 5 353 331 333 334 325 318 316 301 251 204 188 184 195 205 197 190 182 182 180 169 159 150 147 152 153 153 144 141 141 138 144 146 149 142 134 137 118 109 114 109 98 87 87 87 97 103 109 118 122 124 124 127 129 128 134 135 128 126 130 140 132 120 124 130 131 131 122 115 117 120 122 118 121 116 116 110 84
217 233 169 119 98 86 66 31 357 339 327 333 346 338 318 322 315 277 220 190 194 194 190 173 181 189 172 165 161 155 154 167 177 153 151 161 157 155 160 157 153 148 141 132 118 116 112 110 111 113 118 131 125 121 121 114 110 118 122 126 128 133 138 141 142 147 148 140 136 138 137 135 135 132 123 118 122 128 123 110 111 113 88 74 113
271 261 210 156 135 108 80 56 11 341 325 317 309 70 59 51 26 329 300 264 192 177 178 174 159 143 137 122 136 159 176 169 127 124 127 130 131 137 142 142 135 129 138 135 128 120 122 123 130 129 127 122 130 133 134 130 125 123 124 127 133 138 142 143 147 146 144 135 137 134 139 138 140 139 129 125 123 129 140 133 135 129 112 113 120
245 274 198 202 102 86 88 74 38 356 345 347 341 18 41 38 34 34 58 72 89 102 115 128 142 154 150 143 53 82 114 128 135 135 135 131 125 125 125 123 126 135 140 126 115 125 133 129 128 126 125 135 139 131 121 128 131 130 133 141 147 146 144 142 144 142 136 132 132 134 135 137 142 141 136 139 137 137 131 116 114 115 127 137 130
190 191 165 140 108 104 94 78 67 30 355 347 353 332 32 78 57 32 42 76 73 76 80 76 73 77 84 107 114 45 95 131 141 141 141 135 133 131 131 134 142 147 158 129 119 128 133 133 134 133 136 134 125 118 123 127 134 137 142 148 152 145 140 143 143 136 131 132 136 137 138 137 141 140 138 136 133 134 132 123 124 128 133 120 114
205 227 213 150 120 102 89 77 75 59 13 13 6 342 18 68 83 78 50 57 72 71 61 66 73 70 71 68 93 134 149 153 139 134 135 135 135 138 136 134 138 146 132 124 131 135 138 137 134 136 138 134 132 134 137 141 139 142 150 150 147 141 137 138 136 136 141 143 139 139 138 137 134 134 134 136 133 135 137 137 145 145 141 125 118
169 161 247 343 83 81 86 92 82 86 57 42 23 359 20 34 71 74 72 80 69 64 61 52 53 73 63 69 81 89 109 130 132 130 130 129 128 124 117 109 110 148 135 141 136 136 135 135 135 137 135 133 134 135 135 136 138 140 138 135 127 124 127 134 135 140 137 138 140 142 141 143 144 136 136 131 132 132 137 145 149 143 131 132 128
333 102 93 81 85 102 108 108 102 81 85 69 49 32 31 31 48 69 80 62 58 73 83 63 41 49 74 72 73 88 107 119 121 124 125 129 131 131 115 117 117 110 97 103 122 129 135 134 135 134 135 133 133 134 135 136 137 137 133 127 121 121 126 134 140 142 141 140 144 152 156 155 155 147 144 141 138 140 151 156 161 141 130 131 128
1 28 75 78 63 69 72 70 104 99 81 89 91 75 54 49 59 68 73 80 87 93 74 68 76 75 76 71 79 91 104 114 118 122 127 132 141 141 126 121 113 117 119 119 123 121 119 123 122 125 122 121 120 123 129 136 140 131 130 128 131 132 135 140 145 148 152 154 159 157 154 156 151 146 140 143 154 159 162 159 150 134 136 141 146
111 72 76 84 106 102 96 89 79 88 76 79 80 81 83 80 79 78 73 77 80 82 94 107 110 83 71 73 84 85 94 102 102 97 93 91 97 98 91 97 110 117 117 126 129 127 125 130 124 129 131 131 134 134 138 142 142 135 137 137 138 143 151 155 154 152 152 155 160 162 164 162 160 155 154 160 167 160 154 146 141 136 140 150 143
359 115 138 154 113 82 68 66 71 88 98 99 90 85 80 78 87 87 93 92 95 98 105 116 110 108 111 113 120 116 104 97 93 79 69 58 47 62 66 66 70 101 134 137 147 149 153 151 141 147 153 144 142 143 145 150 149 143 143 146 150 157 155 153 151 152 157 159 165 170 164 166 167 166 162 161 162 163 159 156 149 141 150 154 151
303 245 165 113 86 88 102 102 86 85 84 102 104 103 102 102 95 91 91 92 92 87 93 92 91 105 108 108 95 122 115 114 129 139 113 86 81 78 73 60 51 31 94 150 151 156 158 156 147 143 148 148 150 154 154 158 156 150 148 147 146 144 149 152 156 160 162 170 173 172 171 170 167 168 167 159 164 164 162 159 156 155 151 158 169
333 294 25 39 27 34 17 46 100 103 120 131 112 109 105 101 95 97 97 97 94 96 95 98 100 93 111 111 116 124 123 130 146 153 151 142 89 70 69 56 37 355 172 139 127 133 130 137 138 140 148 156 157 159 157 155 157 154 153 154 154 159 165 163 164 165 170 174 172 177 176 170 162 161 166 172 171 165 159 161 169 170 158 149 149
210 264 119 317 288 315 305 40 6 31 10 66 86 105 113 103 99 95 93 92 97 99 97 96 98 109 116 133 134 109 114 121 124 126 138 146 137 147 136 141 174 183 127 124 123 119 122 127 129 127 130 138 147 143 143 140 142 146 152 153 154 158 162 166 167 172 172 170 173 174 178 168 156 151 165 172 151 150 152 150 156 155 143 135 136
203 230 211 213 224 221 238 196 196 192 99 58 71 76 79 90 94 93 91 90 91 92 92 87 92 101 123 129 112 97 104 117 133 144 173 188 204 225 205 186 177 148 145 143 120 114 109 104 104 112 117 119 121 127 128 138 144 147 144 148 153 158 161 169 174 173 171 167 163 160 152 152 152 159 154 148 144 144 139 142 152 141 134 136 137
222 225 233 245 245 249 246 216 139 112 95 82 73 72 80 86 90 93 95 94 93 87 86 88 86 102 114 189 137 99 99 172 193 187 185 206 211 182 149 146 133 125 139 117 112 112 111 108 106 102 113 123 131 136 137 144 144 139 139 141 144 145 152 154 158 154 141 123 125 136 142 145 144 144 147 147 145 142 142 142 141 136 139 139 144
222 224 218 224 233 241 228 180 167 168 159 163 123 87 98 93 91 93 102 105 103 103 107 124 137 152 185 207 122 169 248 203 167 158 152 136 140 142 140 124 120 125 120 116 118 117 113 110 104 92 82 80 93 121 130 146 150 147 146 143 152 156 161 163 163 157 148 145 141 135 148 142 142 141 141 143 143 139 138 139 139 140 137 139 131
198 195 196 199 202 197 184 175 174 174 178 150 112 113 117 120 118 119 121 122 122 125 143 157 174 172 193 198 210 226 203 125 122 124 134 144 139 134 131 127 125 122 121 119 117 112 108 107 105 102 92 73 68 66 75 105 133 147 153 151 150 158 166 169 169 144 123 126 134 159 160 140 144 143 142 143 145 138 138 145 145 138 134 139 139
120 163 157 147 138 135 142 149 160 164 164 153 151 148 141 126 146 154 157 153 150 154 168 180 203 195 215 209 211 151 118 109 124 144 145 127 118 115 113 112 111 111 110 108 104 102 102 104 105 103 101 97 92 85 84 78 77 74 86 116 150 161 168 161 143 143 150 155 162 160 151 152 152 151 148 148 141 134 136 141 142 147 146 148 149
144 155 130 130 128 133 117 117 108 113 139 163 160 152 157 166 167 159 165 156 158 164 173 192 193 225 229 93 83 102 124 123 125 133 127 121 119 122 121 118 112 107 104 101 98 97 96 97 100 106 105 101 94 90 85 83 83 81 75 86 105 114 121 138 156 160 159 164 158 155 155 152 142 137 134 128 126 129 133 143 145 144 146 150 154
149 163 147 139 123 105 76 85 95 101 106 132 149 148 159 158 155 159 166 173 168 177 188 213 178 223 92 100 124 114 108 114 115 113 109 104 107 110 114 115 118 119 114 105 101 103 106 110 109 108 104 102 101 96 91 86 84 81 77 69 74 97 113 117 121 125 135 139 143 140 138 135 136 137 141 139 136 136 130 135 136 140 149 153 154
151 157 153 154 144 135 124 114 115 114 121 123 134 142 152 162 164 167 178 187 188 184 186 188 179 189 100 149 142 126 117 116 119 117 111 110 107 107 109 108 111 113 111 109 110 112 114 113 110 106 105 102 99 99 95 85 76 68 71 77 92 89 89 96 107 118 130 129 124 122 121 125 132 137 137 136 138 132 128 132 138 145 147 150 154
166 162 155 170 140 130 124 124 119 121 117 111 114 127 140 153 165 169 169 171 185 196 204 168 142 123 131 143 135 134 128 129 130 127 122 119 121 122 119 115 110 108 108 108 105 104 102 103 102 101 97 95 90 89 90 87 83 79 68 61 78 91 96 94 97 107 108 109 115 117 118 118 120 124 126 126 124 123 124 131 133 133 138 145 156
144 143 125 112 107 115 118 117 109 118 129 118 110 116 124 117 110 108 108 115 129 115 92 98 115 115 129 143 132 121 121 121 123 124 127 126 129 126 122 116 112 106 103 104 102 99 100 101 100 102 103 101 95 93 92 99 99 102 98 84 71 66 76 95 105 111 113 112 110 112 116 121 121 118 120 121 123 124 133 129 125 122 131 142 145